Year,Month,Day,Hour,Minute,Value (Times are PST for temperature in C)
2013,08,24,09,07,16.00
2013,08,24,09,08,16.00
2013,08,24,09,09,16.10
2013,08,24,09,10,16.10
2013,08,24,09,11,16.20
2013,08,24,09,12,16.20
2013,08,24,09,13,16.20
2013,08,24,09,14,16.30
2013,08,24,09,15,16.30
2013,08,24,09,16,16.40
2013,08,24,09,17,16.40
2013,08,24,09,18,16.50
2013,08,24,09,19,16.50
2013,08,24,09,20,16.60
2013,08,24,09,21,16.60
2013,08,24,09,22,16.70
2013,08,24,09,23,16.70
2013,08,24,09,24,16.80
2013,08,24,09,25,16.80
2013,08,24,09,26,16.80
2013,08,24,09,27,16.90
2013,08,24,09,28,17.00
2013,08,24,09,29,17.00
2013,08,24,09,30,17.10
2013,08,24,09,31,17.10
2013,08,24,09,32,17.20
2013,08,24,09,33,17.20
2013,08,24,09,34,17.20
2013,08,24,09,35,17.30
2013,08,24,09,36,17.30
2013,08,24,09,37,17.40
2013,08,24,09,38,17.40
2013,08,24,09,39,17.40
2013,08,24,09,40,17.40
2013,08,24,09,41,17.50
2013,08,24,09,42,17.50
2013,08,24,09,43,17.60
2013,08,24,09,44,17.60
2013,08,24,09,45,17.70
2013,08,24,09,46,17.70
2013,08,24,09,47,17.70
2013,08,24,09,48,17.70
2013,08,24,09,49,17.70
2013,08,24,09,50,17.60
2013,08,24,09,51,17.60
2013,08,24,09,52,17.60
2013,08,24,09,53,17.60
2013,08,24,09,54,17.60
2013,08,24,09,55,17.60
2013,08,24,09,56,17.50
2013,08,24,09,57,17.50
2013,08,24,09,58,17.60
2013,08,24,09,59,17.60
2013,08,24,10,00,17.60
2013,08,24,10,01,17.60
2013,08,24,10,02,17.60
2013,08,24,10,03,17.60
2013,08,24,10,04,17.60
2013,08,24,10,05,17.50
2013,08,24,10,06,17.50
2013,08,24,10,07,17.50
2013,08,24,10,08,17.50
2013,08,24,10,09,17.50
2013,08,24,10,10,17.50
2013,08,24,10,11,17.50
2013,08,24,10,12,17.60
2013,08,24,10,13,17.60
2013,08,24,10,14,17.60
2013,08,24,10,15,17.70
2013,08,24,10,16,17.70
2013,08,24,10,17,17.80
2013,08,24,10,18,17.80
2013,08,24,10,19,17.90
2013,08,24,10,20,18.00
2013,08,24,10,21,18.00
2013,08,24,10,22,18.10
2013,08,24,10,23,18.20
2013,08,24,10,24,18.20
2013,08,24,10,25,18.30
2013,08,24,10,26,18.30
2013,08,24,10,27,18.20
2013,08,24,10,28,18.10
2013,08,24,10,29,18.00
2013,08,24,10,30,17.90
2013,08,24,10,31,17.80
2013,08,24,10,32,17.70
2013,08,24,10,33,17.50
2013,08,24,10,34,17.40
2013,08,24,10,35,17.40
2013,08,24,10,36,17.40
2013,08,24,10,37,17.40
2013,08,24,10,38,17.40
2013,08,24,10,39,17.40
2013,08,24,10,40,17.40
2013,08,24,10,41,17.40
2013,08,24,10,42,17.30
2013,08,24,10,43,17.30
2013,08,24,10,44,17.30
2013,08,24,10,45,17.30
2013,08,24,10,46,17.40
2013,08,24,10,47,17.40
2013,08,24,10,48,17.50
2013,08,24,10,49,17.60
2013,08,24,10,50,17.70
2013,08,24,10,51,17.70
2013,08,24,10,52,17.80
2013,08,24,10,53,17.90
2013,08,24,10,54,18.00
2013,08,24,10,55,18.10
2013,08,24,10,56,18.20
2013,08,24,10,57,18.20
2013,08,24,10,58,18.20
2013,08,24,10,59,18.30
2013,08,24,11,00,18.30
2013,08,24,11,01,18.30
2013,08,24,11,02,18.40
2013,08,24,11,03,18.40
2013,08,24,11,04,18.40
2013,08,24,11,05,18.40
2013,08,24,11,06,18.40
2013,08,24,11,07,18.40
2013,08,24,11,08,18.40
2013,08,24,11,09,18.40
2013,08,24,11,10,18.40
2013,08,24,11,11,18.40
2013,08,24,11,12,18.40
2013,08,24,11,13,18.30
2013,08,24,11,14,18.30
2013,08,24,11,15,18.20
2013,08,24,11,16,18.20
2013,08,24,11,17,18.20
2013,08,24,11,18,18.30
2013,08,24,11,19,18.30
2013,08,24,11,20,18.40
2013,08,24,11,21,18.40
2013,08,24,11,22,18.50
2013,08,24,11,23,18.60
2013,08,24,11,24,18.70
2013,08,24,11,25,18.80
2013,08,24,11,26,18.90
2013,08,24,11,27,19.10
2013,08,24,11,28,19.20
2013,08,24,11,29,19.30
2013,08,24,11,30,19.30
2013,08,24,11,31,19.20
2013,08,24,11,32,19.20
2013,08,24,11,33,19.20
2013,08,24,11,34,19.00
2013,08,24,11,35,18.80
2013,08,24,11,36,18.60
2013,08,24,11,37,18.40
2013,08,24,11,38,18.30
2013,08,24,11,39,18.30
2013,08,24,11,40,18.30
2013,08,24,11,41,18.40
2013,08,24,11,42,18.40
2013,08,24,11,43,18.40
2013,08,24,11,44,18.50
2013,08,24,11,45,18.50
2013,08,24,11,46,18.60
2013,08,24,11,47,18.60
2013,08,24,11,48,18.60
2013,08,24,11,49,18.60
2013,08,24,11,50,18.70
2013,08,24,11,51,18.70
2013,08,24,11,52,18.80
2013,08,24,11,53,18.90
2013,08,24,11,54,18.90
2013,08,24,11,55,19.00
2013,08,24,11,56,19.20
2013,08,24,11,57,19.30
2013,08,24,11,58,19.40
2013,08,24,11,59,19.40
2013,08,24,12,00,19.40
2013,08,24,12,01,19.40
2013,08,24,12,02,19.30
2013,08,24,12,03,19.30
2013,08,24,12,04,19.30
2013,08,24,12,05,19.20
2013,08,24,12,06,19.10
2013,08,24,12,07,19.00
2013,08,24,12,08,19.00
2013,08,24,12,09,18.90
2013,08,24,12,10,19.00
2013,08,24,12,11,19.00
2013,08,24,12,12,19.00
2013,08,24,12,13,19.00
2013,08,24,12,14,18.90
2013,08,24,12,15,18.90
2013,08,24,12,16,18.80
2013,08,24,12,17,18.80
2013,08,24,12,18,18.70
2013,08,24,12,19,18.70
2013,08,24,12,20,18.60
2013,08,24,12,21,18.60
2013,08,24,12,22,18.60
2013,08,24,12,23,18.60
2013,08,24,12,24,18.60
2013,08,24,12,25,18.60
2013,08,24,12,26,18.60
2013,08,24,12,27,18.60
2013,08,24,12,28,18.60
2013,08,24,12,29,18.50
2013,08,24,12,30,18.50
2013,08,24,12,31,18.40
2013,08,24,12,32,18.40
2013,08,24,12,33,18.30
2013,08,24,12,34,18.30
2013,08,24,12,35,18.30
2013,08,24,12,36,18.30
2013,08,24,12,37,18.20
2013,08,24,12,38,18.20
2013,08,24,12,39,18.20
2013,08,24,12,40,18.10
2013,08,24,12,41,18.10
2013,08,24,12,42,18.10
2013,08,24,12,43,18.10
2013,08,24,12,44,18.10
2013,08,24,12,45,18.10
2013,08,24,12,46,18.20
2013,08,24,12,47,18.20
2013,08,24,12,48,18.20
2013,08,24,12,49,18.20
2013,08,24,12,50,18.20
2013,08,24,12,51,18.20
2013,08,24,12,52,18.20
2013,08,24,12,53,18.20
2013,08,24,12,54,18.20
2013,08,24,12,55,18.20
2013,08,24,12,56,18.20
2013,08,24,12,57,18.20
2013,08,24,12,58,18.10
2013,08,24,12,59,18.10
2013,08,24,13,00,18.10
2013,08,24,13,01,18.10
2013,08,24,13,02,18.10
2013,08,24,13,03,18.10
2013,08,24,13,04,18.10
2013,08,24,13,05,18.10
2013,08,24,13,06,18.20
2013,08,24,13,07,18.20
2013,08,24,13,08,18.20
2013,08,24,13,09,18.20
2013,08,24,13,10,18.30
2013,08,24,13,11,18.30
2013,08,24,13,12,18.30
2013,08,24,13,13,18.40
2013,08,24,13,14,18.40
2013,08,24,13,15,18.40
2013,08,24,13,16,18.40
2013,08,24,13,17,18.40
2013,08,24,13,18,18.40
2013,08,24,13,19,18.40
2013,08,24,13,20,18.40
2013,08,24,13,21,18.50
2013,08,24,13,22,18.50
2013,08,24,13,23,18.50
2013,08,24,13,24,18.60
2013,08,24,13,25,18.60
2013,08,24,13,26,18.70
2013,08,24,13,27,18.70
2013,08,24,13,28,18.70
2013,08,24,13,29,18.70
2013,08,24,13,30,18.70
2013,08,24,13,31,18.60
2013,08,24,13,32,18.60
2013,08,24,13,33,18.50
2013,08,24,13,34,18.50
2013,08,24,13,35,18.40
2013,08,24,13,36,18.40
2013,08,24,13,37,18.40
2013,08,24,13,38,18.30
2013,08,24,13,39,18.30
2013,08,24,13,40,18.30
2013,08,24,13,41,18.30
2013,08,24,13,42,18.40
2013,08,24,13,43,18.40
2013,08,24,13,44,18.40
2013,08,24,13,45,18.40
2013,08,24,13,46,18.40
2013,08,24,13,47,18.40
2013,08,24,13,48,18.40
2013,08,24,13,49,18.40
2013,08,24,13,50,18.40
2013,08,24,13,51,18.40
2013,08,24,13,52,18.40
2013,08,24,13,53,18.40
2013,08,24,13,54,18.40
2013,08,24,13,55,18.40
2013,08,24,13,56,18.40
2013,08,24,13,57,18.40
2013,08,24,13,58,18.50
2013,08,24,13,59,18.50
2013,08,24,14,00,18.50
2013,08,24,14,01,18.40
2013,08,24,14,02,18.40
2013,08,24,14,03,18.40
2013,08,24,14,04,18.30
2013,08,24,14,05,18.30
2013,08,24,14,06,18.30
2013,08,24,14,07,18.30
2013,08,24,14,08,18.30
2013,08,24,14,09,18.30
2013,08,24,14,10,18.30
2013,08,24,14,11,18.30
2013,08,24,14,12,18.30
2013,08,24,14,13,18.30
2013,08,24,14,14,18.40
2013,08,24,14,15,18.40
2013,08,24,14,16,18.40
2013,08,24,14,17,18.50
2013,08,24,14,18,18.50
2013,08,24,14,19,18.60
2013,08,24,14,20,18.60
2013,08,24,14,21,18.70
2013,08,24,14,22,18.80
2013,08,24,14,23,18.90
2013,08,24,14,24,19.00
2013,08,24,14,25,19.10
2013,08,24,14,26,19.20
2013,08,24,14,27,19.20
2013,08,24,14,28,19.30
2013,08,24,14,29,19.30
2013,08,24,14,30,19.40
2013,08,24,14,31,19.40
2013,08,24,14,32,19.40
2013,08,24,14,33,19.30
2013,08,24,14,34,19.30
2013,08,24,14,35,19.30
2013,08,24,14,36,19.20
2013,08,24,14,37,19.20
2013,08,24,14,38,19.20
2013,08,24,14,39,19.20
2013,08,24,14,40,19.10
2013,08,24,14,41,19.10
2013,08,24,14,42,19.10
2013,08,24,14,43,19.10
2013,08,24,14,44,19.10
2013,08,24,14,45,19.10
2013,08,24,14,46,19.10
2013,08,24,14,47,19.00
2013,08,24,14,48,19.00
2013,08,24,14,49,19.00
2013,08,24,14,50,19.00
2013,08,24,14,51,19.00
2013,08,24,14,52,18.90
2013,08,24,14,53,18.80
2013,08,24,14,54,18.70
2013,08,24,14,55,18.50
2013,08,24,14,56,18.30
2013,08,24,14,57,18.10
2013,08,24,14,58,17.90
2013,08,24,14,59,17.80
2013,08,24,15,00,17.70
2013,08,24,15,01,17.60
2013,08,24,15,02,17.60
2013,08,24,15,03,17.60
2013,08,24,15,04,17.60
2013,08,24,15,05,17.60
2013,08,24,15,06,17.60
2013,08,24,15,07,17.50
2013,08,24,15,08,17.50
2013,08,24,15,09,17.40
2013,08,24,15,10,17.40
2013,08,24,15,11,17.30
2013,08,24,15,12,17.30
2013,08,24,15,13,17.30
2013,08,24,15,14,17.20
2013,08,24,15,15,17.20
2013,08,24,15,16,17.20
2013,08,24,15,17,17.20
2013,08,24,15,18,17.20
2013,08,24,15,19,17.20
2013,08,24,15,20,17.20
2013,08,24,15,21,17.20
2013,08,24,15,22,17.20
2013,08,24,15,23,17.20
2013,08,24,15,24,17.20
2013,08,24,15,25,17.20
2013,08,24,15,26,17.20
2013,08,24,15,27,17.20
2013,08,24,15,28,17.30
2013,08,24,15,29,17.30
2013,08,24,15,30,17.30
2013,08,24,15,31,17.30
2013,08,24,15,32,17.30
2013,08,24,15,33,17.30
2013,08,24,15,34,17.30
2013,08,24,15,35,17.30
2013,08,24,15,36,17.40
2013,08,24,15,37,17.40
2013,08,24,15,38,17.40
2013,08,24,15,39,17.40
2013,08,24,15,40,17.50
2013,08,24,15,41,17.50
2013,08,24,15,42,17.60
2013,08,24,15,43,17.60
2013,08,24,15,44,17.70
2013,08,24,15,45,17.70
2013,08,24,15,46,17.80
2013,08,24,15,47,17.80
2013,08,24,15,48,17.90
2013,08,24,15,49,18.00
2013,08,24,15,50,18.00
2013,08,24,15,51,18.00
2013,08,24,15,52,18.00
2013,08,24,15,53,18.10
2013,08,24,15,54,18.10
2013,08,24,15,55,18.20
2013,08,24,15,56,18.20
2013,08,24,15,57,18.30
2013,08,24,15,58,18.30
2013,08,24,15,59,18.30
2013,08,24,16,00,18.30
2013,08,24,16,01,18.40
2013,08,24,16,02,18.40
2013,08,24,16,03,18.40
2013,08,24,16,04,18.40
2013,08,24,16,05,18.40
2013,08,24,16,06,18.40
2013,08,24,16,07,18.40
2013,08,24,16,08,18.50
2013,08,24,16,09,18.60
2013,08,24,16,10,18.60
2013,08,24,16,11,18.60
2013,08,24,16,12,18.70
2013,08,24,16,13,18.70
2013,08,24,16,14,18.70
2013,08,24,16,15,18.70
2013,08,24,16,16,18.70
2013,08,24,16,17,18.70
2013,08,24,16,18,18.70
2013,08,24,16,19,18.80
2013,08,24,16,20,18.80
2013,08,24,16,21,18.90
2013,08,24,16,22,18.90
2013,08,24,16,23,18.90
2013,08,24,16,24,18.80
2013,08,24,16,25,18.90
2013,08,24,16,26,18.90
2013,08,24,16,27,18.90
2013,08,24,16,28,18.90
2013,08,24,16,29,19.00
2013,08,24,16,30,19.00
2013,08,24,16,31,19.10
2013,08,24,16,32,19.10
2013,08,24,16,33,19.10
2013,08,24,16,34,19.10
2013,08,24,16,35,19.10
2013,08,24,16,36,19.10
2013,08,24,16,37,19.10
2013,08,24,16,38,19.20
2013,08,24,16,39,19.20
2013,08,24,16,40,19.20
2013,08,24,16,41,19.20
2013,08,24,16,42,19.30
2013,08,24,16,43,19.30
2013,08,24,16,44,19.30
2013,08,24,16,45,19.40
2013,08,24,16,46,19.40
2013,08,24,16,47,19.50
2013,08,24,16,48,19.50
2013,08,24,16,49,19.50
2013,08,24,16,50,19.50
2013,08,24,16,51,19.50
2013,08,24,16,52,19.40
2013,08,24,16,53,19.40
2013,08,24,16,54,19.40
2013,08,24,16,55,19.40
2013,08,24,16,56,19.40
2013,08,24,16,57,19.50
2013,08,24,16,58,19.50
2013,08,24,16,59,19.40
2013,08,24,17,00,19.40
2013,08,24,17,01,19.40
2013,08,24,17,02,19.40
2013,08,24,17,03,19.40
2013,08,24,17,04,19.40
2013,08,24,17,05,19.40
2013,08,24,17,06,19.40
2013,08,24,17,07,19.50
2013,08,24,17,08,19.50
2013,08,24,17,09,19.60
2013,08,24,17,10,19.60
2013,08,24,17,11,19.70
2013,08,24,17,12,19.70
2013,08,24,17,13,19.70
2013,08,24,17,14,19.60
2013,08,24,17,15,19.60
2013,08,24,17,16,19.60
2013,08,24,17,17,19.60
2013,08,24,17,18,19.60
2013,08,24,17,19,19.60
2013,08,24,17,20,19.60
2013,08,24,17,21,19.70
2013,08,24,17,22,19.70
2013,08,24,17,23,19.80
2013,08,24,17,24,19.70
2013,08,24,17,25,19.70
2013,08,24,17,26,19.60
2013,08,24,17,27,19.60
2013,08,24,17,28,19.60
2013,08,24,17,29,19.60
2013,08,24,17,30,19.50
2013,08,24,17,31,19.50
2013,08,24,17,32,19.50
2013,08,24,17,33,19.50
2013,08,24,17,34,19.60
2013,08,24,17,35,19.60
2013,08,24,17,36,19.60
2013,08,24,17,37,19.70
2013,08,24,17,38,19.70
2013,08,24,17,39,19.70
2013,08,24,17,40,19.70
2013,08,24,17,41,19.70
2013,08,24,17,42,19.70
2013,08,24,17,43,19.70
2013,08,24,17,44,19.70
2013,08,24,17,45,19.70
2013,08,24,17,46,19.70
2013,08,24,17,47,19.70
2013,08,24,17,48,19.70
2013,08,24,17,49,19.60
2013,08,24,17,50,19.60
2013,08,24,17,51,19.60
2013,08,24,17,52,19.50
2013,08,24,17,53,19.50
2013,08,24,17,54,19.40
2013,08,24,17,55,19.40
2013,08,24,17,56,19.30
2013,08,24,17,57,19.30
2013,08,24,17,58,19.30
2013,08,24,17,59,19.20
2013,08,24,18,00,19.20
2013,08,24,18,01,19.20
2013,08,24,18,02,19.20
2013,08,24,18,03,19.20
2013,08,24,18,04,19.20
2013,08,24,18,05,19.10
2013,08,24,18,06,19.10
2013,08,24,18,07,19.10
2013,08,24,18,08,19.10
2013,08,24,18,09,19.20
2013,08,24,18,10,19.20
2013,08,24,18,11,19.30
2013,08,24,18,12,19.40
2013,08,24,18,13,19.40
2013,08,24,18,14,19.50
2013,08,24,18,15,19.60
2013,08,24,18,16,19.60
2013,08,24,18,17,19.60
2013,08,24,18,18,19.70
2013,08,24,18,19,19.70
2013,08,24,18,20,19.70
2013,08,24,18,21,19.70
2013,08,24,18,22,19.70
2013,08,24,18,23,19.70
2013,08,24,18,24,19.70
2013,08,24,18,25,19.60
2013,08,24,18,26,19.60
2013,08,24,18,27,19.60
2013,08,24,18,28,19.60
2013,08,24,18,29,19.60
2013,08,24,18,30,19.60
2013,08,24,18,31,19.60
2013,08,24,18,32,19.60
2013,08,24,18,33,19.60
2013,08,24,18,34,19.60
2013,08,24,18,35,19.60
